#timestamp,LO_Frequency,Hit,StdDev 
1544209215.3,286046997.3,N
1544209235.1,286046995.5,N
1544209255.9,286046995.4,N
1544209275.7,286046997.9,N
1544209295.5,286046996.6,N
1544209315.4,286046996.6,N
1544209335.2,286047000.6,N
1544209355.0,286046997.2,N
1544209355.9,286046997.2,N
1544209375.8,286046996.2,N
1544209395.6,286046993.8,Y
1544209415.5,286046997.7,P
1544209435.3,286046995.3,P
1544209455.1,286046999.3,N
1544209475.9,286047001.0,N
1544209495.7,286046998.8,N
1544209515.6,286046999.1,N
1544209535.4,286046997.2,N
1544209555.2,286046998.3,N
1544209575.1,286046998.9,N
1544209576.0,286046998.9,N
1544209595.8,286046999.2,N
1544209615.6,286046997.1,N
1544209635.5,286046999.4,N
1544209655.3,286046999.1,N
1544209675.2,286046996.6,N
1544209695.9,286046998.1,N
1544209715.7,286047000.5,N
1544209735.6,286046999.9,N
1544209755.4,286047002.7,N
1544209775.2,286046999.8,N
1544209795.1,286047001.2,N
1544209796.0,286047001.2,N
1544209815.8,286047000.2,N
1544209835.7,286047002.0,N
1544209855.5,286047001.4,N
1544209875.3,286047000.2,N
1544209895.2,286046999.7,N
1544209915.0,286047002.3,N
1544209915.9,286047002.3,N
1544209935.7,286046999.6,N
1544209955.6,286046999.9,N
1544209975.4,286046998.5,N
1544209995.3,286046999.6,N
1544210015.1,286046996.6,N
1544210035.8,286046999.1,N
1544210055.7,286046996.7,N
1544210075.5,286046999.3,N
1544210095.4,286046998.1,N
1544210115.2,286047000.7,N
1544210135.0,286046999.5,N
1544210135.9,286046999.5,N
1544210155.8,286046999.6,N
1544210175.6,286046997.9,N
1544210195.4,286046997.3,N
1544210215.3,286046997.7,N
1544210235.1,286046995.8,N
1544210255.9,286046994.4,Y
1544210275.7,286046995.4,P
1544210295.5,286046997.2,N
1544210315.4,286046997.4,N
1544210335.2,286046998.0,N
1544210355.0,286046997.1,N
1544210355.9,286046997.1,N
1544210375.8,286046997.0,N
1544210395.6,286046998.0,N
1544210415.5,286046998.0,N
1544210435.3,286046995.4,Y
1544210455.1,286046998.4,P
1544210475.9,286047001.2,N
1544210495.7,286047001.1,N
1544210515.6,286047000.3,N
1544210535.4,286047000.7,N
1544210555.2,286047001.0,N
1544210575.1,286046996.5,N
1544210576.0,286046996.5,N
1544210595.8,286046998.7,N
1544210615.6,286047000.9,N
1544210635.5,286047001.1,N
1544210655.3,286047000.0,N
1544210675.2,286047001.8,N
1544210695.9,286047002.8,N
1544210715.7,286047001.3,N
1544210735.6,286047001.8,N
1544210755.4,286047001.7,N
1544210775.2,286047001.4,N
1544210795.1,286047002.3,N
1544210796.0,286047002.3,N
1544210815.8,286047002.3,N
1544210835.7,286047000.3,N
1544210855.5,286047000.4,N
1544210875.3,286047002.2,N
1544210895.2,286047003.0,N
1544210915.0,286047001.4,N
1544210915.9,286047001.4,N
1544210935.8,286047000.5,N
1544210955.6,286047002.2,N
1544210975.4,286047002.2,N
1544210995.3,286047003.9,N
1544211015.1,286047002.3,N
1544211035.8,286047001.7,N
1544211055.7,286047004.3,N
1544211075.5,286047011.9,Y
1544211095.4,286047000.3,P
1544211115.2,286046998.6,N
1544211135.0,286046999.6,N
1544211135.9,286046999.6,N
1544211155.8,286046996.7,Y
1544211175.6,286046995.4,P
1544211195.4,286046997.9,N
1544211215.3,286046995.3,N
1544211235.1,286046995.1,N
1544211255.9,286046997.8,N
1544211275.7,286046997.9,N
1544211295.5,286046997.6,N
1544211315.4,286046995.4,N
1544211335.2,286046996.7,N
1544211355.1,286046995.1,Y
1544211356.0,286046995.1,P
1544211375.8,286046999.8,N
1544211395.6,286046999.3,N
1544211415.5,286046998.3,N
1544211435.3,286047000.6,N
1544211455.1,286047003.3,N
1544211475.9,286047001.8,N
1544211495.7,286047002.3,N
1544211515.6,286047003.0,N
1544211535.4,286047005.5,N
1544211555.2,286047006.0,N
1544211575.1,286047004.9,N
1544211576.0,286047004.9,N
1544211595.8,286047004.4,N
1544211615.6,286047004.1,N
1544211635.5,286047004.3,N
1544211655.3,286047002.0,N
1544211675.2,286047002.6,N
1544211695.9,286047003.4,N
1544211715.7,286047001.5,N
1544211735.6,286047002.8,N
1544211755.4,286047001.9,N
1544211775.3,286047001.5,N
1544211795.1,286047003.6,N
1544211796.0,286047011.9,Y
1544211815.8,286047001.8,P
1544211835.7,286047000.1,N
1544211855.5,286047002.0,N
1544211875.3,286047002.6,Y
1544211895.2,286047001.1,P
1544211915.0,286047000.7,P
1544211915.9,286047000.7,N
1544211935.8,286046998.1,Y
1544211955.6,286046999.5,P
1544211975.4,286046999.0,N
1544211995.3,286046998.4,N
1544212015.1,286047001.1,N
1544212035.9,286047000.6,N
1544212055.7,286047000.8,N
1544212075.5,286046998.3,N
1544212095.4,286047000.9,N
1544212115.2,286046998.9,N
1544212135.0,286046998.9,N
1544212135.9,286046998.9,N
1544212155.8,286046996.9,N
1544212175.6,286046997.5,N
1544212195.5,286046995.3,Y
1544212215.3,286046999.5,P
1544212235.1,286046998.3,P
1544212255.9,286046999.1,N
1544212275.7,286046999.0,N
1544212295.6,286047001.2,N
1544212315.4,286047000.8,N
1544212335.2,286046998.3,N
1544212355.1,286046999.4,N
1544212356.0,286046999.4,N
1544212375.8,286046997.2,Y
1544212395.6,286046999.2,P
1544212415.5,286047001.2,P
1544212435.3,286047002.3,N
1544212455.2,286047001.5,N
1544212475.9,286047000.4,N
1544212495.7,286047000.3,N
1544212515.6,286047000.5,N
1544212535.4,286046999.2,N
1544212555.2,286046997.7,N
1544212575.1,286046999.3,N
1544212576.0,286046999.3,N
1544212595.8,286047000.4,N
1544212615.7,286047002.5,N
1544212635.5,286047000.4,N
1544212655.3,286047001.7,N
1544212675.2,286047000.4,N
1544212695.0,286046999.7,N
1544212695.9,286046999.7,N
1544212715.8,286047000.0,N
1544212735.6,286046999.7,N
1544212755.4,286047002.5,N
1544212775.3,286047000.6,N
1544212795.1,286047000.8,N
